Simultaneous Nadir Overpasses (SNOs) Predictions

Prediction of SNOs between METOP-B and TERRA Satellite Orbit:

Table of predicted SNOs for the next 14.0 days since TLE Epoch: 12/12/2015
Index Date (METOP-B) Time (METOP-B) Lat,Lon (METOP-B) SZA (METOP-B ) Date (TERRA) Time (TERRA) Lat,Lon (TERRA) SZA (TERRA ) Distance(km) Time Diff (sec)
1 12/12/2015 07:05:32 81.34, 121.58 107.26 12/12/2015 07:05:49 81.34, 121.52 107.26 1.02 17
2 12/12/2015 07:56:12 -81.35, -70.70 72.69 12/12/2015 07:55:15 -81.35, -70.54 72.70 2.80 57
3 12/15/2015 02:39:51 81.34,-172.07 107.40 12/15/2015 02:40:01 81.34,-171.97 107.42 1.65 10
4 12/15/2015 03:30:31 -81.34, -4.31 72.55 12/15/2015 03:29:28 -81.34, -4.39 72.59 1.51 63
5 12/17/2015 22:14:09 81.34,-105.77 107.48 12/17/2015 22:14:12 81.34,-105.58 107.50 3.16 3
6 12
